PST,Max TemperatureF,Mean TemperatureF,Min TemperatureF,Max Dew PointF,MeanDew PointF,Min DewpointF,Max Humidity, Mean Humidity, Min Humidity, Max Sea Level PressureIn, Mean Sea Level PressureIn, Min Sea Level PressureIn, Max VisibilityMiles, Mean VisibilityMiles, Min VisibilityMiles, Max Wind SpeedMPH, Mean Wind SpeedMPH, Max Gust SpeedMPH,PrecipitationIn, CloudCover, Events, WindDirDegrees
2013-12-1,54,39,24,34,28,22,96,77,41,30.42,30.28,30.15,10,7,0,12,4,,0.00,2,Fog,146
2013-12-2,66,51,36,31,25,17,73,43,17,30.13,29.90,29.71,10,10,10,21,11,34,0.00,5,,200
2013-12-3,51,35,19,35,24,14,88,77,50,29.84,29.76,29.62,10,6,0,25,14,34,0.00,7,Snow,345
2013-12-4,27,22,16,18,13,9,85,70,58,30.03,29.93,29.80,10,10,9,10,6,,0.00,5,Snow,356
2013-12-5,27,22,16,15,11,6,78,64,45,30.05,29.96,29.93,10,10,10,8,4,,0.00,5,,38
2013-12-6,30,24,17,17,13,10,78,62,46,30.01,29.86,29.65,10,10,10,17,8,,0.00,7,,178
2013-12-7,32,22,10,26,19,4,89,75,49,30.02,29.76,29.61,10,6,1,17,10,23,0.00,7,Snow,295
2013-12-8,21,12,3,9,3,-2,84,75,60,30.27,30.14,30.03,10,10,10,7,2,,0.00,0,,21
2013-12-9,18,7,-4,8,0,-9,84,75,62,30.50,30.37,30.28,10,10,10,9,3,,0.00,0,,38
2013-12-10,23,12,0,10,3,-5,84,75,55,30.44,30.29,30.22,10,10,10,8,2,,0.00,3,,27
2013-12-11,25,13,1,11,5,-1,88,75,53,30.43,30.30,30.26,10,10,7,7,2,,0.00,1,,28
2013-12-12,28,16,3,13,6,-1,84,75,53,30.38,30.22,30.14,10,9,8,7,3,,0.00,1,,43
2013-12-13,32,19,6,17,10,1,84,75,54,30.37,30.26,30.15,10,9,6,7,2,,0.00,1,,25
2013-12-14,34,20,7,19,12,3,84,77,54,30.61,30.42,30.38,10,7,5,8,3,,0.00,2,,31
2013-12-15,36,22,9,21,14,6,88,76,52,30.53,30.38,30.32,10,8,5,7,3,,0.00,1,,58
2013-12-16,37,24,10,22,14,5,92,79,54,30.55,30.40,30.31,10,5,0,7,2,,0.00,3,Fog,84
2013-12-17,34,23,12,23,15,9,92,82,64,30.47,30.31,30.10,10,5,0,8,2,,0.00,6,Fog,29
2013-12-18,35,27,19,27,22,17,89,80,64,30.11,29.88,29.64,10,8,6,12,3,,0.00,6,Rain,139
2013-12-19,36,28,16,30,23,12,93,75,50,29.97,29.80,29.65,10,7,2,26,10,34,0.00,5,Snow,355
2013-12-20,34,21,8,19,14,4,88,70,46,30.08,29.97,29.88,10,10,10,8,4,,0.00,4,,153
2013-12-21,50,34,19,32,25,17,89,73,48,30.07,29.96,29.87,10,10,10,8,3,21,0.00,4,,146
2013-12-22,52,38,24,31,27,22,92,74,43,30.33,30.20,30.07,10,10,10,8,4,,0.00,2,,155
2013-12-23,51,36,21,34,26,18,96,81,52,30.47,30.31,30.27,10,9,6,8,3,,0.00,2,,81
2013-12-24,48,34,19,34,26,18,96,85,56,30.53,30.37,30.28,10,7,0,7,4,,0.00,1,Fog,106
2013-12-25,33,24,21,27,20,16,92,84,78,30.54,30.40,30.32,,,,6,2,,0.00,4,,118
2013-12-26,36,28,19,31,24,17,96,88,77,30.50,30.39,30.29,7,1,0,8,3,,0.00,6,Fog,14
2013-12-27,33,28,24,29,25,19,92,84,78,30.42,30.25,30.09,6,1,0,6,1,,0.00,8,Fog,11
2013-12-28,36,28,21,35,24,16,100,85,78,30.38,30.23,30.08,10,2,0,7,2,,0.00,5,Fog,46
2013-12-29,35,27,19,30,22,13,100,85,74,30.42,30.32,30.21,10,2,0,7,2,,0.00,8,Fog,15
2013-12-30,37,29,21,31,23,15,92,82,70,30.36,30.25,30.17,10,4,0,7,1,,0.00,6,Fog,58
2013-12-31,48,34,21,30,24,20,96,81,42,30.27,30.18,30.14,10,9,2,7,2,,0.00,4,,172